Regional Weather Roundup
Issued by NWS

Home | Current Version | Previous Version | Text Only | Print | Product List | Glossary Off
Versions: 1 2 3 4 5 6 7 8 9 10 11 12 13 14 15 16 17 18 19 20 21 22 23 24 25 26 27

000
ASUS45 KPSR 281310
RWRAZ

ARIZONA HOURLY REGIONAL WEATHER ROUNDUP
NATIONAL WEATHER SERVICE PHOENIX AZ
600 AM MST FRI APR 28 2017

NOTE: FAIR INDICATES FEW OR NO CLOUDS BELOW 12,000 FEET WITH NO
SIGNIFICANT WEATHER AND/OR OBSTRUCTIONS TO VISIBILITY.

AZZ001>003-036-281400-
NORTHWEST ARIZONA

CITY           SKY/WX    TMP DP  RH WIND       PRES   REMARKS
BULLHEAD CITY  PTCLDY    68  23  18 N21G29    29.71R
KINGMAN        PTCLDY    53  16  23 N16       29.80R
$$

AZZ004>008-015-016-018-281400-
NORTH CENTRAL ARIZONA

CITY           SKY/WX    TMP DP  RH WIND       PRES   REMARKS
GRAND CANYON   CLOUDY    40  19  43 NW7       29.80R
WILLIAMS       CLOUDY    39  16  38 NW8       29.82R WCI  34
PRESCOTT       MOCLDY    45  23  42 W5        29.78R
FLAGSTAFF      CLOUDY    42  11  28 VRB5      29.79R
PAYSON         CLOUDY    55  41  58 VRB3      29.76S
PAGE           PTCLDY    47  22  37 NW9       29.78R
$$

AZZ009>014-017-281400-
NORTHEAST ARIZONA

CITY           SKY/WX    TMP DP  RH WIND       PRES   REMARKS
WINSLOW        CLOUDY    51  22  31 NW12      29.74R
SAINT JOHNS    CLOUDY    53  32  44 NW17G24   29.69S
WINDOW ROCK    CLOUDY    37  31  78 E6        29.77S WCI  32
SHOW LOW       CLOUDY    48  34  57 SW17G23   29.77R
$$

AZZ540-542>544-546-548-281400-
GREATER PHOENIX AREA

CITY           SKY/WX    TMP DP  RH WIND       PRES   REMARKS
PHOENIX        MOCLDY    74  44  34 W15       29.59R
BUCKEYE        PTCLDY    66  46  48 SW9       29.62R
GLENDALE       MOCLDY    72  46  40 SW10G17   29.62
LUKE AFB       PTCLDY    70  47  43 SW14      29.60R
DEER VALLEY    CLEAR     69  46  43 SW13      29.60S
SCOTTSDALE     PTCLDY    71  44  37 CALM      29.63R
MESA-FALCON    MOCLDY   N/A N/A N/A SE6       29.63
MESA-GATEWAY   MOCLDY    64  41  42 E6        29.62F
CHANDLER       CLEAR     72  43  35 S14       29.61
$$

AZZ539-553-281400-
SOUTHWEST MARICOPA COUNTY AND PINAL COUNTY

CITY           SKY/WX    TMP DP  RH WIND       PRES   REMARKS
CASA GRANDE    PTCLDY    67  43  41 SW8       29.65R
GILA BEND      FAIR      68  45  42 S7        29.61S
$$

AZZ503-504-507>509-281400-
SOUTHEAST ARIZONA

CITY           SKY/WX    TMP DP  RH WIND       PRES   REMARKS
TUCSON         MOCLDY    68  43  40 SW13      29.72R
DAVIS-MONTHAN  MOCLDY    66  42  42 W3        29.72R
RYAN FIELD     CLEAR     68  45  42 S16       29.72
NOGALES        MOCLDY    58  41  53 SE6       29.78S
SIERRA VISTA   MOCLDY    61  37  40 S9        29.81R
DOUGLAS        CLOUDY    58  38  47 VRB5      29.80R
SAFFORD        CLOUDY    67  38  34 W9        29.67R
$$

AZZ532-281400-
SOUTHWEST ARIZONA

CITY           SKY/WX    TMP DP  RH WIND       PRES   REMARKS
YUMA           MOCLDY    69  46  43 W7        29.63R
$$

CAZ041-043-047-048-061-525>527-560>570-281400-
SOUTHERN CALIFORNIA

CITY           SKY/WX    TMP DP  RH WIND       PRES   REMARKS
DOWNTOWN L.A.  CLEAR     70  30  22 MISG      29.74R
L.A. AIRPORT   PTCLDY    69  32  25 NE20G29   29.72S
SAN DIEGO      MOCLDY    62  57  83 SE8       29.78S
BURBANK        CLEAR     65  30  27 NW10G24   29.78R
ONTARIO        MOCLDY    58  49  72 CALM      29.76R
RIVERSIDE      CLEAR     54  48  80 SE3       29.76R
PALM SPRINGS   PTCLDY    72  36  26 NW13      29.68R
EL CENTRO NAS  MOCLDY    68  37  32 N3        29.65R
IMPERIAL       PTCLDY    69  44  40 N6        29.63R
BLYTHE         MOCLDY    72  30  21 N8        29.65R
NEEDLES        PTCLDY    70  18  13 N21G28    29.72R
$$

NVZ020-UTZ003-281400-
SOUTHERN NEVADA-UTAH

CITY           SKY/WX    TMP DP  RH WIND       PRES   REMARKS
LAS VEGAS      PTCLDY    60  13  15 N18       29.82R
SALT LAKE CITY MOCLDY    36  33  89 E5        29.87S WCI  32
$$

NMZ009-TXZ055-281400-
NEW MEXICO-WEST TEXAS

CITY           SKY/WX    TMP DP  RH WIND       PRES   REMARKS
ALBUQUERQUE    PTCLDY    43  27  53 N8        29.74F
EL PASO        MOCLDY    67  36  31 SW14      29.72R
$$


........................KEY........................
SKY/WX - SKY CONDITION/WEATHER
TMP    - TEMPERATURE IN FAHRENHEIT
DP     - DEW POINT IN FAHRENHEIT
RH     - RELATIVE HUMIDITY IN PERCENT
WIND   - DIRECTION AND SPEED IN MILES PER HOUR (MPH)
VRB    - VARIABLE WIND DIRECTION
PRES   - MEAN SEA LEVEL PRESSURE IN INCHES OF MERCURY
         F - FALLING PRESSURE   R - RISING PRESSURE
         S - STEADY PRESSURE
VSB    - VISIBILITY IN MILES
HX     - HEAT INDEX IN FAHRENHEIT
WCI    - WIND CHILL INDEX IN FAHRENHEIT
TC     - TEMPERATURE IN CELSIUS WHICH IS ALSO KNOWN AS
         TEMPERATURE IN CENTIGRADE
AFB    - AIR FORCE BASE
         LUKE AFB IS LUKE AIR FORCE BASE
         DAVIS-MONTHAN IS DAVIS-MONTHAN AIR FORCE BASE
NAS    - NAVAL AIR STATION
         EL CENTRO NAS IS EL CENTRO NAVAL AIR STATION
N/A    - NOT AVAILABLE





USA.gov is the U.S. government's official web portal to all federal, state and local government web resources and services.